contact:dominique.lefevre@mio.osupytheas.fr, maurice.libes@osupytheas.fr, didier.mallarino@osupytheas.fr
Project:EMSO http://www.emso-fr.org/EMSO-France
Depth: 2436.0 m
Title:EMSO Ligure Ouest : Data MII capteur CSTAR
DateTime,Latitude,Longitude,Instrument_Serial,Reference_Counts,Signal_Counts,Corrected_Signal_raw_counts,Calculated_Beam_c_inverse_meters,Internal_thermistor_counts
DateTime,Latitude,Longitude,Instrument_Serial,Reference_Counts,Signal_Counts,Corrected_Signal_raw_counts,Calculated_Beam_c_inverse_meters,Internal_thermistor_counts
2022-05-16T00:02:55,42.805,6.029,CST-1368DR,4748,5338,11986,01.058,551
2022-05-16T00:05:56,42.805,6.029,CST-1368DR,4748,5337,11984,01.059,551
2022-05-16T00:08:58,42.805,6.029,CST-1368DR,4748,5350,12013,01.049,551
2022-05-16T00:11:59,42.805,6.029,CST-1368DR,4748,5338,11987,01.058,551
2022-05-16T00:15:01,42.805,6.029,CST-1368DR,4748,5337,11984,01.059,551
2022-05-16T00:18:03,42.805,6.029,CST-1368DR,4748,5333,11976,01.062,551
2022-05-16T00:21:04,42.805,6.029,CST-1368DR,4748,5337,11984,01.059,551
2022-05-16T00:24:06,42.805,6.029,CST-1368DR,4748,5339,11989,01.057,551
2022-05-16T00:27:07,42.805,6.029,CST-1368DR,4748,5333,11976,01.062,551
2022-05-16T00:30:09,42.805,6.029,CST-1368DR,4748,5338,11987,01.058,551
2022-05-16T00:33:10,42.805,6.029,CST-1368DR,4748,5340,11992,01.056,551
2022-05-16T00:36:12,42.805,6.029,CST-1368DR,4748,5343,11997,01.055,551
2022-05-16T00:39:14,42.805,6.029,CST-1368DR,4748,5338,11986,01.058,551
2022-05-16T00:42:15,42.805,6.029,CST-1368DR,4748,5334,11978,01.061,551
2022-05-16T00:45:17,42.805,6.029,CST-1368DR,4748,5338,11987,01.058,551
2022-05-16T00:48:18,42.805,6.029,CST-1368DR,4748,5335,11980,01.060,551
2022-05-16T00:51:20,42.805,6.029,CST-1368DR,4748,5334,11978,01.061,551
2022-05-16T00:54:21,42.805,6.029,CST-1368DR,4748,5336,11983,01.059,551
2022-05-16T00:57:23,42.805,6.029,CST-1368DR,4748,5335,11980,01.060,551
2022-05-16T01:00:25,42.805,6.029,CST-1368DR,4748,5333,11976,01.062,551
2022-05-16T01:03:26,42.805,6.029,CST-1368DR,4748,5331,11971,01.063,551
2022-05-16T01:06:28,42.805,6.029,CST-1368DR,4748,5333,11975,01.062,551
2022-05-16T01:09:29,42.805,6.029,CST-1368DR,4748,5338,11987,01.058,551
2022-05-16T01:12:31,42.805,6.029,CST-1368DR,4748,5337,11985,01.059,551
2022-05-16T01:15:33,42.805,6.029,CST-1368DR,4748,5333,11975,01.062,551
2022-05-16T01:18:34,42.805,6.029,CST-1368DR,4748,5336,11983,01.059,551
2022-05-16T01:21:36,42.805,6.029,CST-1368DR,4748,5334,11978,01.061,551
2022-05-16T01:24:37,42.805,6.029,CST-1368DR,4748,5333,11976,01.062,551
2022-05-16T01:27:39,42.805,6.029,CST-1368DR,4748,5333,11976,01.062,551
2022-05-16T01:30:40,42.805,6.029,CST-1368DR,4748,5338,11987,01.058,551
2022-05-16T01:33:42,42.805,6.029,CST-1368DR,4748,5334,11979,01.061,551
2022-05-16T01:36:44,42.805,6.029,CST-1368DR,4748,5335,11979,01.061,551
2022-05-16T01:39:45,42.805,6.029,CST-1368DR,4748,5332,11973,01.063,551
2022-05-16T01:42:47,42.805,6.029,CST-1368DR,4748,5333,11975,01.062,551
2022-05-16T01:45:48,42.805,6.029,CST-1368DR,4748,5334,11978,01.061,551
2022-05-16T01:48:50,42.805,6.029,CST-1368DR,4748,5335,11980,01.060,551
2022-05-16T01:51:51,42.805,6.029,CST-1368DR,4748,5330,11970,01.064,551
2022-05-16T01:54:53,42.805,6.029,CST-1368DR,4748,5331,11971,01.063,551
2022-05-16T01:57:55,42.805,6.029,CST-1368DR,4748,5334,11979,01.061,551
2022-05-16T02:00:56,42.805,6.029,CST-1368DR,4748,5337,11985,01.059,551
2022-05-16T02:03:58,42.805,6.029,CST-1368DR,4748,5335,11980,01.060,551
2022-05-16T02:06:59,42.805,6.029,CST-1368DR,4748,5337,11984,01.059,551
2022-05-16T02:10:01,42.805,6.029,CST-1368DR,4748,5336,11982,01.060,551
2022-05-16T02:13:03,42.805,6.029,CST-1368DR,4748,5341,11994,01.056,551
2022-05-16T02:16:04,42.805,6.029,CST-1368DR,4748,5334,11979,01.061,551
2022-05-16T02:19:06,42.805,6.029,CST-1368DR,4748,5335,11980,01.060,551
2022-05-16T02:22:07,42.805,6.029,CST-1368DR,4748,5336,11982,01.060,551
2022-05-16T02:25:09,42.805,6.029,CST-1368DR,4748,5339,11990,01.057,551
2022-05-16T02:28:10,42.805,6.029,CST-1368DR,4748,5340,11990,01.057,551
2022-05-16T02:31:12,42.805,6.029,CST-1368DR,4748,5334,11979,01.061,551
2022-05-16T02:34:14,42.805,6.029,CST-1368DR,4748,5337,11984,01.059,551
2022-05-16T02:37:15,42.805,6.029,CST-1368DR,4748,5339,11989,01.057,551
2022-05-16T02:40:17,42.805,6.029,CST-1368DR,4748,5332,11974,01.062,551
2022-05-16T02:43:18,42.805,6.029,CST-1368DR,4748,5338,11987,01.058,551
2022-05-16T02:46:20,42.805,6.029,CST-1368DR,4748,5339,11989,01.057,551
2022-05-16T02:49:21,42.805,6.029,CST-1368DR,4748,5338,11986,01.058,551
2022-05-16T02:52:23,42.805,6.029,CST-1368DR,4748,5335,11979,01.061,551
2022-05-16T02:55:25,42.805,6.029,CST-1368DR,4748,5333,11975,01.062,550
2022-05-16T02:58:26,42.805,6.029,CST-1368DR,4748,5338,11986,01.058,551
2022-05-16T03:01:28,42.805,6.029,CST-1368DR,4748,5342,11995,01.055,551
2022-05-16T03:04:29,42.805,6.029,CST-1368DR,4748,5336,11983,01.059,551
2022-05-16T03:07:31,42.805,6.029,CST-1368DR,4748,5334,11978,01.061,551
2022-05-16T03:10:33,42.805,6.029,CST-1368DR,4748,5335,11979,01.061,551
2022-05-16T03:13:34,42.805,6.029,CST-1368DR,4748,5345,12002,01.053,551
2022-05-16T03:16:36,42.805,6.029,CST-1368DR,4748,5338,11986,01.058,551
2022-05-16T03:19:37,42.805,6.029,CST-1368DR,4748,5335,11980,01.060,551
2022-05-16T03:22:39,42.805,6.029,CST-1368DR,4748,5336,11982,01.060,551
2022-05-16T03:25:40,42.805,6.029,CST-1368DR,4748,5338,11986,01.058,551
2022-05-16T03:28:42,42.805,6.029,CST-1368DR,4748,5333,11976,01.062,551
2022-05-16T03:31:44,42.805,6.029,CST-1368DR,4748,5335,11980,01.060,551
2022-05-16T03:34:45,42.805,6.029,CST-1368DR,4748,5339,11989,01.057,551
2022-05-16T03:37:47,42.805,6.029,CST-1368DR,4748,5338,11988,01.058,551
2022-05-16T03:40:48,42.805,6.029,CST-1368DR,4748,5337,11985,01.059,551
2022-05-16T03:43:50,42.805,6.029,CST-1368DR,4748,5345,12003,01.053,551
2022-05-16T03:46:51,42.805,6.029,CST-1368DR,4748,5338,11986,01.058,551
2022-05-16T03:49:53,42.805,6.029,CST-1368DR,4748,5335,11980,01.060,551
2022-05-16T03:52:55,42.805,6.029,CST-1368DR,4748,5334,11978,01.061,551
2022-05-16T03:55:56,42.805,6.029,CST-1368DR,4748,5334,11979,01.061,551
2022-05-16T03:58:58,42.805,6.029,CST-1368DR,4748,5334,11977,01.061,551
2022-05-16T04:01:59,42.805,6.029,CST-1368DR,4748,5336,11983,01.059,551
2022-05-16T04:05:01,42.805,6.029,CST-1368DR,4748,5334,11978,01.061,551
2022-05-16T04:08:03,42.805,6.029,CST-1368DR,4748,5339,11989,01.057,551
2022-05-16T04:11:04,42.805,6.029,CST-1368DR,4748,5339,11989,01.057,551
2022-05-16T04:14:06,42.805,6.029,CST-1368DR,4748,5337,11984,01.059,551
2022-05-16T04:17:07,42.805,6.029,CST-1368DR,4748,5339,11989,01.057,551
2022-05-16T04:20:09,42.805,6.029,CST-1368DR,4748,5338,11987,01.058,551
2022-05-16T04:23:10,42.805,6.029,CST-1368DR,4748,5345,12002,01.053,551
2022-05-16T04:26:12,42.805,6.029,CST-1368DR,4748,5332,11974,01.062,551
2022-05-16T04:29:14,42.805,6.029,CST-1368DR,4748,5338,11987,01.058,551
2022-05-16T04:32:15,42.805,6.029,CST-1368DR,4748,5334,11977,01.061,551
2022-05-16T04:35:17,42.805,6.029,CST-1368DR,4748,5340,11992,01.056,551
2022-05-16T04:38:18,42.805,6.029,CST-1368DR,4748,5338,11987,01.058,551
2022-05-16T04:41:20,42.805,6.029,CST-1368DR,4748,5340,11992,01.056,551
2022-05-16T04:44:21,42.805,6.029,CST-1368DR,4748,5341,11994,01.056,551
2022-05-16T04:47:23,42.805,6.029,CST-1368DR,4748,5348,12008,01.051,551
2022-05-16T04:50:25,42.805,6.029,CST-1368DR,4748,5341,11993,01.056,551
2022-05-16T04:53:26,42.805,6.029,CST-1368DR,4748,5338,11987,01.058,551
2022-05-16T04:56:28,42.805,6.029,CST-1368DR,4748,5348,12010,01.050,551
2022-05-16T04:59:29,42.805,6.029,CST-1368DR,4748,5343,11998,01.054,551
2022-05-16T05:02:31,42.805,6.029,CST-1368DR,4748,5351,12015,01.049,551
2022-05-16T05:05:33,42.805,6.029,CST-1368DR,4748,5343,11997,01.055,551
2022-05-16T05:08:34,42.805,6.029,CST-1368DR,4748,5344,12000,01.054,551
2022-05-16T05:11:36,42.805,6.029,CST-1368DR,4748,5346,12005,01.052,551
2022-05-16T05:14:37,42.805,6.029,CST-1368DR,4748,5346,12005,01.052,551
2022-05-16T05:17:39,42.805,6.029,CST-1368DR,4748,5339,11990,01.057,551
2022-05-16T05:20:40,42.805,6.029,CST-1368DR,4748,5341,11993,01.056,551
2022-05-16T05:23:42,42.805,6.029,CST-1368DR,4748,5340,11992,01.056,551
2022-05-16T05:26:44,42.805,6.029,CST-1368DR,4748,5343,11997,01.055,551
2022-05-16T05:29:45,42.805,6.029,CST-1368DR,4748,5344,12001,01.053,551
2022-05-16T05:32:47,42.805,6.029,CST-1368DR,4748,5347,12007,01.051,551
2022-05-16T05:35:48,42.805,6.029,CST-1368DR,4748,5341,11993,01.056,551
2022-05-16T05:38:50,42.805,6.029,CST-1368DR,4748,5347,12007,01.051,551
2022-05-16T05:41:52,42.805,6.029,CST-1368DR,4748,5344,11999,01.054,551
2022-05-16T05:44:53,42.805,6.029,CST-1368DR,4748,5345,12003,01.053,551
2022-05-16T05:47:55,42.805,6.029,CST-1368DR,4748,5345,12002,01.053,551
2022-05-16T05:50:56,42.805,6.029,CST-1368DR,4748,5353,12021,01.047,551
2022-05-16T05:53:58,42.805,6.029,CST-1368DR,4748,5345,12002,01.053,551
2022-05-16T05:56:59,42.805,6.029,CST-1368DR,4748,5353,12020,01.047,551
2022-05-16T06:00:01,42.805,6.029,CST-1368DR,4748,5353,12021,01.047,551
2022-05-16T06:03:03,42.805,6.029,CST-1368DR,4748,5348,12009,01.051,551
2022-05-16T06:06:04,42.805,6.029,CST-1368DR,4747,5345,12005,01.052,551
2022-05-16T06:09:06,42.805,6.029,CST-1368DR,4747,5345,12005,01.052,551
2022-05-16T06:12:07,42.805,6.029,CST-1368DR,4747,5346,12008,01.051,551
2022-05-16T06:15:09,42.805,6.029,CST-1368DR,4748,5350,12014,01.049,551
2022-05-16T06:18:10,42.805,6.029,CST-1368DR,4747,5355,12027,01.045,551
2022-05-16T06:21:12,42.805,6.029,CST-1368DR,4748,5357,12029,01.044,551
2022-05-16T06:24:14,42.805,6.029,CST-1368DR,4748,5349,12012,01.050,551
2022-05-16T06:27:15,42.805,6.029,CST-1368DR,4748,5339,11990,01.057,551
2022-05-16T06:30:17,42.805,6.029,CST-1368DR,4747,5344,12003,01.053,551
2022-05-16T06:33:18,42.805,6.029,CST-1368DR,4747,5347,12009,01.051,551
2022-05-16T06:36:20,42.805,6.029,CST-1368DR,4748,5344,12001,01.053,551
2022-05-16T06:39:22,42.805,6.029,CST-1368DR,4748,5343,11997,01.055,551
2022-05-16T06:42:23,42.805,6.029,CST-1368DR,4748,5351,12016,01.048,551
2022-05-16T06:45:25,42.805,6.029,CST-1368DR,4747,5340,11993,01.056,551
2022-05-16T06:48:26,42.805,6.029,CST-1368DR,4747,5351,12018,01.048,551
2022-05-16T06:51:28,42.805,6.029,CST-1368DR,4747,5344,12002,01.053,551
2022-05-16T06:54:29,42.805,6.029,CST-1368DR,4747,5352,12022,01.046,551
2022-05-16T06:57:31,42.805,6.029,CST-1368DR,4747,5351,12018,01.048,551
2022-05-16T07:00:33,42.805,6.029,CST-1368DR,4748,5350,12015,01.049,551
2022-05-16T07:03:34,42.805,6.029,CST-1368DR,4748,5344,12001,01.053,551
2022-05-16T07:06:36,42.805,6.029,CST-1368DR,4747,5343,12000,01.054,551
2022-05-16T07:09:37,42.805,6.029,CST-1368DR,4747,5340,11994,01.056,551
2022-05-16T07:12:39,42.805,6.029,CST-1368DR,4747,5346,12008,01.051,551
2022-05-16T07:15:40,42.805,6.029,CST-1368DR,4747,5345,12005,01.052,551
2022-05-16T07:18:42,42.805,6.029,CST-1368DR,4747,5338,11990,01.057,551
2022-05-16T07:21:44,42.805,6.029,CST-1368DR,4748,5340,11991,01.057,551
2022-05-16T07:24:45,42.805,6.029,CST-1368DR,4748,5342,11997,01.055,551
2022-05-16T07:27:47,42.805,6.029,CST-1368DR,4747,5338,11989,01.057,551
2022-05-16T07:30:48,42.805,6.029,CST-1368DR,4747,5343,12000,01.054,551
2022-05-16T07:33:50,42.805,6.029,CST-1368DR,4747,5345,12005,01.052,551
2022-05-16T07:36:52,42.805,6.029,CST-1368DR,4747,5345,12005,01.052,551
2022-05-16T07:39:53,42.805,6.029,CST-1368DR,4748,5364,12045,01.039,551
2022-05-16T07:42:55,42.805,6.029,CST-1368DR,4747,5351,12018,01.048,551
2022-05-16T07:45:56,42.805,6.029,CST-1368DR,4747,5352,12020,01.047,551
2022-05-16T07:48:58,42.805,6.029,CST-1368DR,4747,5343,12000,01.054,550
2022-05-16T07:51:59,42.805,6.029,CST-1368DR,4747,5355,12028,01.044,550
2022-05-16T07:55:01,42.805,6.029,CST-1368DR,4747,5347,12009,01.051,551
2022-05-16T07:58:03,42.805,6.029,CST-1368DR,4747,5347,12009,01.051,551
2022-05-16T08:01:04,42.805,6.029,CST-1368DR,4747,5348,12011,01.050,551
2022-05-16T08:04:06,42.805,6.029,CST-1368DR,4747,5347,12010,01.050,551
2022-05-16T08:07:07,42.805,6.029,CST-1368DR,4747,5352,12020,01.047,551
2022-05-16T08:10:09,42.805,6.029,CST-1368DR,4747,5360,12039,01.041,551
2022-05-16T08:13:10,42.805,6.029,CST-1368DR,4747,5353,12024,01.046,551
2022-05-16T08:16:12,42.805,6.029,CST-1368DR,4747,5357,12032,01.043,551
2022-05-16T08:19:14,42.805,6.029,CST-1368DR,4747,5351,12019,01.047,551
2022-05-16T08:22:15,42.805,6.029,CST-1368DR,4747,5352,12022,01.046,551
2022-05-16T08:25:17,42.805,6.029,CST-1368DR,4747,5354,12025,01.045,551
2022-05-16T08:28:18,42.805,6.029,CST-1368DR,4747,5350,12016,01.048,551
2022-05-16T08:31:20,42.805,6.029,CST-1368DR,4747,5347,12009,01.051,551
2022-05-16T08:34:22,42.805,6.029,CST-1368DR,4747,5350,12016,01.048,551
2022-05-16T08:37:23,42.805,6.029,CST-1368DR,4747,5347,12010,01.050,551
2022-05-16T08:40:25,42.805,6.029,CST-1368DR,4747,5347,12010,01.050,551
2022-05-16T08:43:26,42.805,6.029,CST-1368DR,4747,5348,12011,01.050,551
2022-05-16T08:46:28,42.805,6.029,CST-1368DR,4747,5352,12020,01.047,551
2022-05-16T08:49:29,42.805,6.029,CST-1368DR,4747,5351,12019,01.047,551
2022-05-16T08:52:31,42.805,6.029,CST-1368DR,4747,5348,12013,01.049,551
2022-05-16T08:55:33,42.805,6.029,CST-1368DR,4747,5349,12014,01.049,551
2022-05-16T08:58:34,42.805,6.029,CST-1368DR,4747,5353,12023,01.046,551
2022-05-16T09:01:36,42.805,6.029,CST-1368DR,4747,5352,12020,01.047,551
2022-05-16T09:04:37,42.805,6.029,CST-1368DR,4747,5356,12031,01.043,551
2022-05-16T09:07:39,42.805,6.029,CST-1368DR,4747,5358,12034,01.042,551
2022-05-16T09:10:41,42.805,6.029,CST-1368DR,4747,5357,12032,01.043,551
2022-05-16T09:13:42,42.805,6.029,CST-1368DR,4747,5357,12033,01.043,551
2022-05-16T09:16:44,42.805,6.029,CST-1368DR,4747,5358,12035,01.042,551
2022-05-16T09:19:45,42.805,6.029,CST-1368DR,4747,5357,12031,01.043,551
2022-05-16T09:22:47,42.805,6.029,CST-1368DR,4747,5357,12033,01.043,551
2022-05-16T09:25:48,42.805,6.029,CST-1368DR,4747,5350,12017,01.048,551
2022-05-16T09:28:50,42.805,6.029,CST-1368DR,4747,5350,12016,01.048,551
2022-05-16T09:31:52,42.805,6.029,CST-1368DR,4747,5352,12020,01.047,551
2022-05-16T09:34:53,42.805,6.029,CST-1368DR,4747,5382,12087,01.025,551
2022-05-16T09:37:55,42.805,6.029,CST-1368DR,4747,5365,12050,01.037,551
2022-05-16T09:40:56,42.805,6.029,CST-1368DR,4747,5355,12027,01.045,551
2022-05-16T09:43:58,42.805,6.029,CST-1368DR,4747,5351,12018,01.048,551
2022-05-16T09:46:59,42.805,6.029,CST-1368DR,4747,5355,12027,01.045,551
2022-05-16T09:50:01,42.805,6.029,CST-1368DR,4747,5350,12015,01.049,551
2022-05-16T09:53:03,42.805,6.029,CST-1368DR,4747,5351,12019,01.047,551
2022-05-16T09:56:04,42.805,6.029,CST-1368DR,4747,5351,12018,01.048,551
2022-05-16T09:59:06,42.805,6.029,CST-1368DR,4747,5351,12018,01.048,551
2022-05-16T10:02:07,42.805,6.029,CST-1368DR,4747,5351,12018,01.048,551
2022-05-16T10:05:09,42.805,6.029,CST-1368DR,4747,5351,12019,01.047,551
2022-05-16T10:08:10,42.805,6.029,CST-1368DR,4747,5353,12024,01.046,551
2022-05-16T10:11:12,42.805,6.029,CST-1368DR,4747,5355,12028,01.044,551
2022-05-16T10:14:14,42.805,6.029,CST-1368DR,4747,5353,12023,01.046,551
2022-05-16T10:17:15,42.805,6.029,CST-1368DR,4747,5372,12065,01.032,551
2022-05-16T10:20:17,42.805,6.029,CST-1368DR,4747,5372,12065,01.032,551
2022-05-16T10:23:18,42.805,6.029,CST-1368DR,4747,5368,12057,01.035,551
2022-05-16T10:26:20,42.805,6.029,CST-1368DR,4747,5363,12046,01.038,551
2022-05-16T10:29:22,42.805,6.029,CST-1368DR,4747,5358,12035,01.042,551
2022-05-16T10:32:23,42.805,6.029,CST-1368DR,4747,5358,12034,01.042,551
2022-05-16T10:35:25,42.805,6.029,CST-1368DR,4747,5358,12035,01.042,551
2022-05-16T10:38:26,42.805,6.029,CST-1368DR,4747,5378,12080,01.027,551
2022-05-16T10:41:28,42.805,6.029,CST-1368DR,4747,5371,12064,01.032,551
2022-05-16T10:44:29,42.805,6.029,CST-1368DR,4747,5366,12052,01.036,551
2022-05-16T10:47:31,42.805,6.029,CST-1368DR,4747,5366,12052,01.036,551
2022-05-16T10:50:33,42.805,6.029,CST-1368DR,4747,5365,12050,01.037,551
2022-05-16T10:53:34,42.805,6.029,CST-1368DR,4747,5363,12046,01.038,551
2022-05-16T10:56:36,42.805,6.029,CST-1368DR,4747,5356,12029,01.044,551
2022-05-16T10:59:37,42.805,6.029,CST-1368DR,4747,5358,12035,01.042,551
2022-05-16T11:02:39,42.805,6.029,CST-1368DR,4747,5359,12037,01.041,551
2022-05-16T11:05:41,42.805,6.029,CST-1368DR,4747,5357,12032,01.043,551
2022-05-16T11:08:42,42.805,6.029,CST-1368DR,4747,5358,12034,01.042,550
2022-05-16T11:11:44,42.805,6.029,CST-1368DR,4747,5372,12065,01.032,551
2022-05-16T11:14:45,42.805,6.029,CST-1368DR,4747,5370,12060,01.034,551
2022-05-16T11:17:47,42.805,6.029,CST-1368DR,4747,5367,12055,01.035,551
2022-05-16T11:20:48,42.805,6.029,CST-1368DR,4747,5357,12033,01.043,551
2022-05-16T11:23:50,42.805,6.029,CST-1368DR,4747,5360,12038,01.041,551
2022-05-16T11:26:52,42.805,6.029,CST-1368DR,4747,5362,12042,01.040,551
2022-05-16T11:29:53,42.805,6.029,CST-1368DR,4747,5364,12047,01.038,551
2022-05-16T11:32:55,42.805,6.029,CST-1368DR,4747,5365,12050,01.037,551
2022-05-16T11:35:56,42.805,6.029,CST-1368DR,4747,5367,12054,01.036,551
2022-05-16T11:38:58,42.805,6.029,CST-1368DR,4747,5368,12056,01.035,551
2022-05-16T11:41:59,42.805,6.029,CST-1368DR,4747,5379,12082,01.026,551
2022-05-16T11:45:01,42.805,6.029,CST-1368DR,4747,5377,12078,01.028,551
2022-05-16T11:48:03,42.805,6.029,CST-1368DR,4747,5370,12062,01.033,551
2022-05-16T11:51:04,42.805,6.029,CST-1368DR,4747,5364,12047,01.038,551
2022-05-16T11:54:06,42.805,6.029,CST-1368DR,4747,5358,12034,01.042,551
2022-05-16T11:57:07,42.805,6.029,CST-1368DR,4747,5363,12046,01.038,551
2022-05-16T12:00:09,42.805,6.029,CST-1368DR,4747,5374,12069,01.031,551
2022-05-16T12:03:11,42.805,6.029,CST-1368DR,4747,5376,12075,01.029,551
2022-05-16T12:06:12,42.805,6.029,CST-1368DR,4747,5360,12040,01.040,551
2022-05-16T12:09:14,42.805,6.029,CST-1368DR,4747,5375,12072,01.030,551
2022-05-16T12:12:15,42.805,6.029,CST-1368DR,4747,5362,12042,01.040,551
2022-05-16T12:15:17,42.805,6.029,CST-1368DR,4747,5377,12077,01.028,551
2022-05-16T12:18:18,42.805,6.029,CST-1368DR,4747,5366,12052,01.036,551
2022-05-16T12:21:20,42.805,6.029,CST-1368DR,4747,5368,12057,01.035,551
2022-05-16T12:24:22,42.805,6.029,CST-1368DR,4747,5381,12085,01.025,550
2022-05-16T12:27:23,42.805,6.029,CST-1368DR,4747,5372,12065,01.032,551
2022-05-16T12:30:25,42.805,6.029,CST-1368DR,4747,5375,12073,01.029,551
2022-05-16T12:33:26,42.805,6.029,CST-1368DR,4747,5383,12090,01.024,551
2022-05-16T12:36:28,42.805,6.029,CST-1368DR,4747,5371,12064,01.032,551
2022-05-16T12:39:29,42.805,6.029,CST-1368DR,4747,5377,12076,01.028,551
2022-05-16T12:42:31,42.805,6.029,CST-1368DR,4747,5373,12068,01.031,551
2022-05-16T12:45:33,42.805,6.029,CST-1368DR,4747,5378,12079,01.027,551
2022-05-16T12:48:34,42.805,6.029,CST-1368DR,4747,5380,12084,01.026,551
2022-05-16T12:51:36,42.805,6.029,CST-1368DR,4747,5377,12077,01.028,551
2022-05-16T12:54:37,42.805,6.029,CST-1368DR,4747,5378,12079,01.027,551
2022-05-16T12:57:39,42.805,6.029,CST-1368DR,4747,5377,12078,01.028,551
2022-05-16T13:00:41,42.805,6.029,CST-1368DR,4747,5376,12075,01.029,551
2022-05-16T13:03:42,42.805,6.029,CST-1368DR,4747,5381,12087,01.025,551
2022-05-16T13:06:44,42.805,6.029,CST-1368DR,4747,5379,12082,01.026,551
2022-05-16T13:09:45,42.805,6.029,CST-1368DR,4747,5382,12089,01.024,551
2022-05-16T13:12:47,42.805,6.029,CST-1368DR,4747,5389,12104,01.019,551
2022-05-16T13:15:48,42.805,6.029,CST-1368DR,4747,5388,12102,01.020,551
2022-05-16T13:18:50,42.805,6.029,CST-1368DR,4747,5390,12106,01.018,551
2022-05-16T13:21:52,42.805,6.029,CST-1368DR,4747,5385,12094,01.022,551
2022-05-16T13:24:53,42.805,6.029,CST-1368DR,4747,5390,12106,01.018,551
2022-05-16T13:27:55,42.805,6.029,CST-1368DR,4747,5388,12102,01.020,551
2022-05-16T13:30:56,42.805,6.029,CST-1368DR,4747,5391,12107,01.018,551
2022-05-16T13:33:58,42.805,6.029,CST-1368DR,4747,5387,12099,01.021,551
2022-05-16T13:36:59,42.805,6.029,CST-1368DR,4747,5392,12110,01.017,551
2022-05-16T13:40:01,42.805,6.029,CST-1368DR,4747,5393,12114,01.016,551
2022-05-16T13:43:03,42.805,6.029,CST-1368DR,4747,5389,12104,01.019,551
2022-05-16T13:46:04,42.805,6.029,CST-1368DR,4747,5388,12101,01.020,551
2022-05-16T13:49:06,42.805,6.029,CST-1368DR,4747,5389,12104,01.019,551
2022-05-16T13:52:07,42.805,6.029,CST-1368DR,4747,5386,12096,01.022,551
2022-05-16T13:55:09,42.805,6.029,CST-1368DR,4747,5389,12104,01.019,551
2022-05-16T13:58:11,42.805,6.029,CST-1368DR,4747,5389,12103,01.019,551
2022-05-16T14:01:12,42.805,6.029,CST-1368DR,4747,5388,12102,01.020,551
2022-05-16T14:04:14,42.805,6.029,CST-1368DR,4747,5390,12107,01.018,551
2022-05-16T14:07:15,42.805,6.029,CST-1368DR,4747,5390,12106,01.018,551
2022-05-16T14:10:17,42.805,6.029,CST-1368DR,4747,5390,12105,01.019,551
2022-05-16T14:13:18,42.805,6.029,CST-1368DR,4747,5392,12110,01.017,551
2022-05-16T14:16:20,42.805,6.029,CST-1368DR,4747,5392,12110,01.017,551
2022-05-16T14:19:22,42.805,6.029,CST-1368DR,4747,5391,12108,01.018,551
2022-05-16T14:22:23,42.805,6.029,CST-1368DR,4747,5387,12098,01.021,551
2022-05-16T14:25:25,42.805,6.029,CST-1368DR,4747,5389,12104,01.019,551
2022-05-16T14:28:26,42.805,6.029,CST-1368DR,4747,5392,12110,01.017,551
2022-05-16T14:31:28,42.805,6.029,CST-1368DR,4747,5391,12108,01.018,551
2022-05-16T14:34:30,42.805,6.029,CST-1368DR,4747,5391,12109,01.017,551
2022-05-16T14:37:31,42.805,6.029,CST-1368DR,4747,5390,12106,01.018,551
2022-05-16T14:40:33,42.805,6.029,CST-1368DR,4747,5391,12107,01.018,551
2022-05-16T14:43:34,42.805,6.029,CST-1368DR,4747,5390,12105,01.019,551
2022-05-16T14:46:36,42.805,6.029,CST-1368DR,4747,5384,12092,01.023,551
2022-05-16T14:49:37,42.805,6.029,CST-1368DR,4747,5390,12106,01.018,551
2022-05-16T14:52:39,42.805,6.029,CST-1368DR,4747,5392,12111,01.017,551
2022-05-16T14:55:41,42.805,6.029,CST-1368DR,4747,5388,12102,01.020,551
2022-05-16T14:58:42,42.805,6.029,CST-1368DR,4747,5391,12109,01.017,551
2022-05-16T15:01:44,42.805,6.029,CST-1368DR,4747,5391,12108,01.018,551
2022-05-16T15:04:45,42.805,6.029,CST-1368DR,4747,5386,12097,01.021,551
2022-05-16T15:07:47,42.805,6.029,CST-1368DR,4747,5390,12106,01.018,551
2022-05-16T15:10:48,42.805,6.029,CST-1368DR,4747,5390,12106,01.018,551
2022-05-16T15:13:50,42.805,6.029,CST-1368DR,4747,5391,12107,01.018,551
2022-05-16T15:16:52,42.805,6.029,CST-1368DR,4747,5391,12107,01.018,551
2022-05-16T15:19:53,42.805,6.029,CST-1368DR,4747,5390,12107,01.018,551
2022-05-16T15:22:55,42.805,6.029,CST-1368DR,4747,5388,12101,01.020,551
2022-05-16T15:25:56,42.805,6.029,CST-1368DR,4747,5392,12111,01.017,551
2022-05-16T15:28:58,42.805,6.029,CST-1368DR,4747,5389,12104,01.019,551
2022-05-16T15:32:00,42.805,6.029,CST-1368DR,4747,5390,12107,01.018,551
2022-05-16T15:35:01,42.805,6.029,CST-1368DR,4747,5387,12098,01.021,550
2022-05-16T15:38:03,42.805,6.029,CST-1368DR,4747,5388,12101,01.020,551
2022-05-16T15:41:04,42.805,6.029,CST-1368DR,4747,5390,12106,01.018,551
2022-05-16T15:44:06,42.805,6.029,CST-1368DR,4747,5390,12106,01.018,551
2022-05-16T15:47:07,42.805,6.029,CST-1368DR,4747,5392,12110,01.017,551
2022-05-16T15:50:09,42.805,6.029,CST-1368DR,4747,5390,12106,01.018,551
2022-05-16T15:53:11,42.805,6.029,CST-1368DR,4747,5392,12111,01.017,551
2022-05-16T15:56:12,42.805,6.029,CST-1368DR,4747,5387,12098,01.021,551
2022-05-16T15:59:14,42.805,6.029,CST-1368DR,4747,5390,12105,01.019,551
2022-05-16T16:02:15,42.805,6.029,CST-1368DR,4747,5387,12100,01.020,551
2022-05-16T16:05:17,42.805,6.029,CST-1368DR,4747,5392,12111,01.017,551
2022-05-16T16:08:18,42.805,6.029,CST-1368DR,4747,5392,12110,01.017,551
2022-05-16T16:11:20,42.805,6.029,CST-1368DR,4747,5393,12114,01.016,551
2022-05-16T16:14:22,42.805,6.029,CST-1368DR,4747,5391,12107,01.018,551
2022-05-16T16:17:23,42.805,6.029,CST-1368DR,4747,5392,12110,01.017,551
2022-05-16T16:20:25,42.805,6.029,CST-1368DR,4747,5390,12107,01.018,550
2022-05-16T16:23:26,42.805,6.029,CST-1368DR,4747,5391,12108,01.018,551
2022-05-16T16:26:28,42.805,6.029,CST-1368DR,4747,5390,12106,01.018,551
2022-05-16T16:29:30,42.805,6.029,CST-1368DR,4747,5393,12113,01.016,551
2022-05-16T16:32:31,42.805,6.029,CST-1368DR,4747,5392,12111,01.017,551
2022-05-16T16:35:33,42.805,6.029,CST-1368DR,4747,5393,12113,01.016,551
2022-05-16T16:38:34,42.805,6.029,CST-1368DR,4747,5386,12096,01.022,551